TimeCDT,TemperatureF,Dew PointF,Humidity,Sea Level PressureIn,VisibilityMPH,Wind Direction,Wind SpeedMPH,Gust SpeedMPH,PrecipitationIn,Events,Conditions,WindDirDegrees,DateUTC
12:56 AM,39.0,30.0,70,30.22,10.0,NE,9.2,-,N/A,,Overcast,40,2013-04-17 05:56:00
1:56 AM,37.9,30.0,73,30.19,10.0,NNE,11.5,-,N/A,,Overcast,30,2013-04-17 06:56:00
2:56 AM,37.0,30.0,76,30.15,10.0,NNE,12.7,23.0,N/A,,Overcast,30,2013-04-17 07:56:00
3:56 AM,36.0,30.0,79,30.13,10.0,NNE,13.8,21.9,N/A,,Overcast,30,2013-04-17 08:56:00
4:56 AM,36.0,30.0,79,30.09,10.0,NE,17.3,24.2,N/A,,Overcast,40,2013-04-17 09:56:00
5:56 AM,34.0,30.9,89,30.14,5.0,NE,10.4,-,0.06,Rain,Rain,40,2013-04-17 10:56:00
6:56 AM,34.0,30.9,89,30.06,5.0,NNE,17.3,24.2,0.12,Rain,Light Rain,30,2013-04-17 11:56:00
7:24 AM,33.8,30.2,87,30.06,6.0,NNE,17.3,24.2,0.02,Rain,Light Rain,20,2013-04-17 12:24:00
7:46 AM,33.8,32.0,93,30.09,4.0,NE,12.7,-,0.08,Rain,Rain,40,2013-04-17 12:46:00
7:56 AM,34.0,32.0,92,30.11,3.0,NNE,11.5,-,0.09,Rain,Light Rain,30,2013-04-17 12:56:00
8:56 AM,34.0,32.0,92,30.07,8.0,NNE,13.8,24.2,0.03,,Overcast,30,2013-04-17 13:56:00
9:56 AM,34.0,32.0,92,30.08,6.0,NNE,10.4,-,0.00,,Overcast,20,2013-04-17 14:56:00
10:15 AM,33.8,33.8,100,30.03,1.8,NNE,15.0,-,0.00,,Overcast,20,2013-04-17 15:15:00
10:42 AM,35.6,33.8,93,30.03,3.0,NNE,16.1,24.2,0.00,Rain,Light Rain,20,2013-04-17 15:42:00
10:56 AM,35.1,33.1,92,30.05,6.0,NNE,17.3,-,0.00,,Overcast,20,2013-04-17 15:56:00
11:42 AM,35.6,33.8,93,29.98,2.5,NNE,18.4,27.6,0.00,,Overcast,20,2013-04-17 16:42:00
11:51 AM,35.6,33.8,93,29.98,3.0,NNE,18.4,27.6,0.00,Rain,Light Rain,20,2013-04-17 16:51:00
11:56 AM,36.0,34.0,93,30.02,3.0,NNE,17.3,-,0.00,Rain,Light Rain,20,2013-04-17 16:56:00
12:56 PM,37.0,35.1,93,29.99,4.0,North,18.4,-,0.00,,Overcast,10,2013-04-17 17:56:00
1:16 PM,37.4,35.6,93,29.96,2.5,NNE,19.6,-,0.00,,Overcast,20,2013-04-17 18:16:00
1:23 PM,37.4,35.6,93,29.95,3.0,North,17.3,25.3,0.00,,Overcast,10,2013-04-17 18:23:00
1:56 PM,37.0,35.1,93,29.95,3.0,North,21.9,27.6,0.00,,Overcast,10,2013-04-17 18:56:00
2:30 PM,37.4,35.6,93,29.93,2.5,NNE,17.3,-,0.00,Rain,Light Rain,20,2013-04-17 19:30:00
2:43 PM,37.4,35.6,93,29.92,3.0,NNE,16.1,-,0.00,Rain,Light Rain,20,2013-04-17 19:43:00
2:56 PM,37.9,36.0,93,29.96,3.0,NNE,20.7,-,0.00,Rain,Light Rain,20,2013-04-17 19:56:00
3:43 PM,37.4,35.6,93,29.88,3.0,NNE,16.1,26.5,0.00,Rain,Light Rain,20,2013-04-17 20:43:00
3:56 PM,37.9,36.0,93,29.93,2.5,NNE,19.6,23.0,0.00,Rain,Light Rain,20,2013-04-17 20:56:00
4:00 PM,37.4,35.6,93,29.89,3.0,NNE,19.6,23.0,0.00,Rain,Light Rain,20,2013-04-17 21:00:00
4:34 PM,37.4,35.6,93,29.87,2.5,North,18.4,-,0.00,Rain,Light Rain,10,2013-04-17 21:34:00
4:56 PM,37.9,36.0,93,29.91,3.0,North,16.1,-,0.00,Rain,Light Rain,10,2013-04-17 21:56:00
5:45 PM,37.4,35.6,93,29.97,2.0,NE,5.8,-,0.01,Snow,Light Snow,50,2013-04-17 22:45:00
5:56 PM,37.9,37.0,97,29.99,1.2,NNE,9.2,-,0.01,Rain,Light Rain,20,2013-04-17 22:56:00
6:38 PM,37.4,35.6,93,29.89,2.5,North,13.8,27.6,0.04,Snow,Light Snow,360,2013-04-17 23:38:00
6:48 PM,37.4,35.6,93,29.88,3.0,North,17.3,-,0.05,,Overcast,360,2013-04-17 23:48:00
6:56 PM,37.0,36.0,96,29.91,4.0,North,16.1,-,0.05,,Overcast,360,2013-04-17 23:56:00
7:56 PM,37.0,35.1,93,29.94,10.0,North,18.4,28.8,0.00,,Overcast,360,2013-04-18 00:56:00
8:07 PM,37.4,33.8,87,29.90,10.0,North,20.7,34.5,N/A,,Overcast,10,2013-04-18 01:07:00
8:49 PM,35.6,33.8,93,29.93,10.0,North,24.2,29.9,0.00,,Overcast,360,2013-04-18 01:49:00
8:56 PM,35.1,33.1,92,29.97,10.0,North,25.3,31.1,0.00,,Overcast,360,2013-04-18 01:56:00
9:22 PM,35.6,32.0,87,29.93,10.0,North,25.3,35.7,N/A,,Overcast,360,2013-04-18 02:22:00
9:48 PM,33.8,32.0,93,29.94,8.0,North,23.0,32.2,N/A,,Overcast,350,2013-04-18 02:48:00
9:56 PM,34.0,30.9,89,29.99,6.0,North,27.6,33.4,0.00,,Overcast,350,2013-04-18 02:56:00
10:56 PM,33.1,30.0,89,29.95,10.0,North,21.9,35.7,0.00,,Overcast,350,2013-04-18 03:56:00
11:56 PM,33.1,30.0,89,29.93,10.0,North,24.2,31.1,N/A,,Overcast,350,2013-04-18 04:56:00